timestamp,surface_pressure_avg,surface_temp_avg,battery_voltage,lat,long
2019-03-10 00:00:00+00:00,320.0647,-1.1,12.97,47.84626,-54.09684
2019-03-10 00:10:00+00:00,327.0963,-1.12,12.89,47.84626,-54.09684
2019-03-10 00:20:00+00:00,336.1613,-1.11,12.97,47.84626,-54.09684
2019-03-10 00:30:00+00:00,340.0197,-1.15,12.97,47.84626,-54.09684
2019-03-10 00:40:00+00:00,339.793,-1.2,12.97,47.84626,-54.09684
2019-03-10 00:50:00+00:00,341.7562,-1.2,12.97,47.84626,-54.09684
2019-03-10 01:00:00+00:00,345.3096,-1.2,12.89,47.84626,-54.09684
2019-03-10 01:10:00+00:00,345.928,-1.2,12.81,47.84626,-54.09684
2019-03-10 01:20:00+00:00,344.7896,-1.2,12.89,47.84626,-54.09684
2019-03-10 01:30:00+00:00,347.5813,-1.2,12.89,47.84626,-54.09684
2019-03-10 01:40:00+00:00,348.9012,-1.2,12.97,47.84626,-54.09684
2019-03-10 01:50:00+00:00,346.1896,-1.2,12.97,47.84626,-54.09684
2019-03-10 02:00:00+00:00,344.4763,-1.2,12.81,47.84626,-54.09684
2019-03-10 02:10:00+00:00,343.3414,-1.2,12.81,47.84626,-54.09684
2019-03-10 02:20:00+00:00,342.2596,-1.2,12.89,47.84626,-54.09684
2019-03-10 02:30:00+00:00,340.183,-1.2,12.89,47.84626,-54.09684
2019-03-10 02:40:00+00:00,336.258,-1.2,12.89,47.84626,-54.09684
2019-03-10 02:50:00+00:00,332.2813,-1.3,12.89,47.84626,-54.09684
2019-03-10 03:00:00+00:00,332.348,-1.3,12.81,47.84626,-54.09684
2019-03-10 03:10:00+00:00,333.113,-1.27,12.73,47.84626,-54.09684
2019-03-10 03:20:00+00:00,328.6596,-1.25,12.81,47.84626,-54.09684
2019-03-10 03:30:00+00:00,324.9464,-1.25,12.81,47.84626,-54.09684
2019-03-10 03:40:00+00:00,322.0363,-1.21,12.89,47.84626,-54.09684
2019-03-10 03:50:00+00:00,315.4163,-1.2,12.89,47.84626,-54.09684
2019-03-10 04:00:00+00:00,307.693,-1.2,12.81,47.84626,-54.09684
2019-03-10 04:10:00+00:00,302.6763,-1.2,12.73,47.84626,-54.09684
2019-03-10 04:20:00+00:00,297.3997,-1.2,12.81,47.84626,-54.09684
2019-03-10 04:30:00+00:00,286.6164,-1.2,12.81,47.84626,-54.09684
2019-03-10 04:40:00+00:00,279.9064,-1.3,12.81,47.84626,-54.09684
2019-03-10 04:50:00+00:00,273.8697,-1.3,12.81,47.84626,-54.09684
2019-03-10 05:00:00+00:00,263.2515,-1.3,12.73,47.84626,-54.09684
2019-03-10 05:10:00+00:00,251.6097,-1.3,12.65,47.84626,-54.09684
2019-03-10 05:20:00+00:00,247.0114,-1.3,12.73,47.84626,-54.09684
2019-03-10 05:30:00+00:00,241.7464,-1.3,12.73,47.84626,-54.09684
2019-03-10 05:40:00+00:00,228.7347,-1.3,12.81,47.84626,-54.09684
2019-03-10 05:50:00+00:00,219.0314,-1.31,12.81,47.84626,-54.09684
2019-03-10 06:00:00+00:00,218.2598,-1.31,12.73,47.84626,-54.09684
2019-03-10 06:10:00+00:00,213.2815,-1.3,12.65,47.84626,-54.09684
2019-03-10 06:20:00+00:00,202.7148,-1.32,12.73,47.84626,-54.09684
2019-03-10 06:30:00+00:00,199.4281,-1.33,12.73,47.84626,-54.09684
2019-03-10 06:40:00+00:00,199.1448,-1.33,12.73,47.84626,-54.09684
2019-03-10 06:50:00+00:00,193.8998,-1.4,12.73,47.84626,-54.09684
2019-03-10 07:00:00+00:00,189.6815,-1.4,12.65,47.84626,-54.09684
2019-03-10 07:10:00+00:00,188.9298,-1.4,12.65,47.84626,-54.09684
2019-03-10 07:20:00+00:00,189.1315,-1.4,12.73,47.84626,-54.09684
2019-03-10 07:30:00+00:00,189.7014,-1.37,12.73,47.84626,-54.09684
2019-03-10 07:40:00+00:00,188.5182,-1.34,12.73,47.84626,-54.09684
2019-03-10 07:50:00+00:00,189.5281,-1.33,12.73,47.84626,-54.09684
2019-03-10 08:00:00+00:00,193.1165,-1.34,12.65,47.84626,-54.09684
2019-03-10 08:10:00+00:00,194.0764,-1.34,12.57,47.84626,-54.09684
2019-03-10 08:20:00+00:00,195.2865,-1.35,12.65,47.84626,-54.09684
2019-03-10 08:30:00+00:00,200.1314,-1.36,12.65,47.84626,-54.09684
2019-03-10 08:40:00+00:00,202.6998,-1.37,12.73,47.84626,-54.09684
2019-03-10 08:50:00+00:00,206.2965,-1.4,12.73,47.84626,-54.09684
2019-03-10 09:00:00+00:00,210.8148,-1.4,12.65,47.84626,-54.09684
2019-03-10 09:10:00+00:00,214.1914,-1.4,12.57,47.84626,-54.09684
2019-03-10 09:20:00+00:00,217.8864,-1.4,12.65,47.84626,-54.09684
2019-03-10 09:30:00+00:00,219.5098,-1.4,12.65,47.84626,-54.09684
2019-03-10 09:40:00+00:00,225.1014,-1.4,12.73,47.84626,-54.09684
2019-03-10 09:50:00+00:00,232.3498,-1.4,12.73,47.84626,-54.09684
2019-03-10 10:00:00+00:00,233.0981,-1.4,12.65,47.84626,-54.09684
2019-03-10 10:10:00+00:00,236.2531,-1.4,12.65,47.84626,-54.09684
2019-03-10 10:20:00+00:00,245.2998,-1.4,13.13,47.84626,-54.09684
2019-03-10 10:30:00+00:00,251.2148,-1.4,13.92,47.84626,-54.09684
2019-03-10 10:40:00+00:00,255.5914,-1.4,15.35,47.84626,-54.09684
2019-03-10 10:50:00+00:00,263.1114,-1.4,16.47,47.84626,-54.09684
2019-03-10 11:00:00+00:00,270.2798,-1.4,15.91,47.84626,-54.09684
2019-03-10 11:10:00+00:00,272.6281,-1.4,16.39,47.84626,-54.09684
2019-03-10 11:20:00+00:00,276.0381,-1.4,17.03,47.84626,-54.09684
2019-03-10 11:30:00+00:00,285.9814,-1.4,16.95,47.84626,-54.09684
2019-03-10 11:40:00+00:00,293.298,-1.4,16.87,47.84626,-54.09684
2019-03-10 11:50:00+00:00,294.2547,-1.44,16.63,47.84626,-54.09684
2019-03-10 12:00:00+00:00,299.4913,-1.41,15.75,47.84626,-54.09684
2019-03-10 12:10:00+00:00,310.4347,-1.4,15.83,47.84626,-54.09684
2019-03-10 12:20:00+00:00,316.1829,-1.4,15.44,47.84626,-54.09684
2019-03-10 12:30:00+00:00,318.5364,-1.4,15.67,47.84626,-54.09684
2019-03-10 12:40:00+00:00,327.9662,-1.4,15.6,47.84626,-54.09684
2019-03-10 12:50:00+00:00,337.468,-1.4,15.6,47.84626,-54.09684
2019-03-10 13:00:00+00:00,340.508,-1.4,15.35,47.84626,-54.09684
2019-03-10 13:10:00+00:00,343.6713,-1.4,15.35,47.84626,-54.09684
2019-03-10 13:20:00+00:00,350.4529,-1.33,15.44,47.84626,-54.09684
2019-03-10 13:30:00+00:00,352.1663,-1.3,15.35,47.84626,-54.09684
2019-03-10 13:40:00+00:00,353.7579,-1.3,15.35,47.84626,-54.09684
2019-03-10 13:50:00+00:00,357.2996,-1.3,15.27,47.84626,-54.09684
2019-03-10 14:00:00+00:00,358.3796,-1.3,15.11,47.84626,-54.09684
2019-03-10 14:10:00+00:00,357.768,-1.3,15.11,47.84626,-54.09684
2019-03-10 14:20:00+00:00,355.728,-1.28,15.2,47.84626,-54.09684
2019-03-10 14:30:00+00:00,349.7662,-1.24,15.11,47.84626,-54.09684
2019-03-10 14:40:00+00:00,345.8763,-1.27,15.11,47.84626,-54.09684
2019-03-10 14:50:00+00:00,345.3846,-1.28,15.11,47.84626,-54.09684
2019-03-10 15:00:00+00:00,341.4079,-1.3,14.96,47.84626,-54.09684
2019-03-10 15:10:00+00:00,334.593,-1.3,14.96,47.84626,-54.09684
2019-03-10 15:20:00+00:00,330.1363,-1.3,15.04,47.84626,-54.09684
2019-03-10 15:30:00+00:00,330.4763,-1.29,14.96,47.84626,-54.09684
2019-03-10 15:40:00+00:00,326.2263,-1.23,14.96,47.84626,-54.09684
2019-03-10 15:50:00+00:00,318.753,-1.2,14.96,47.84626,-54.09684
2019-03-10 16:00:00+00:00,317.1296,-1.2,14.88,47.84626,-54.09684
2019-03-10 16:10:00+00:00,314.733,-1.2,14.88,47.84626,-54.09684
2019-03-10 16:20:00+00:00,306.1247,-1.2,14.96,47.84626,-54.09684
2019-03-10 16:30:00+00:00,297.4447,-1.2,14.88,47.84626,-54.09684
2019-03-10 16:40:00+00:00,294.8164,-1.19,14.88,47.84626,-54.09684
2019-03-10 16:50:00+00:00,283.4164,-1.13,14.88,47.84626,-54.09684
2019-03-10 17:00:00+00:00,270.1031,-1.1,14.8,47.84626,-54.09684
2019-03-10 17:10:00+00:00,265.6048,-1.1,14.72,47.84626,-54.09684
2019-03-10 17:20:00+00:00,260.9348,-1.1,14.8,47.84626,-54.09684
2019-03-10 17:30:00+00:00,252.3464,-1.1,14.8,47.84626,-54.09684
2019-03-10 17:40:00+00:00,246.7698,-1.1,14.72,47.84626,-54.09684
2019-03-10 17:50:00+00:00,242.4314,-1.1,14.72,47.84626,-54.09684
2019-03-10 18:00:00+00:00,233.7281,-1.1,14.64,47.84626,-54.09684
2019-03-10 18:10:00+00:00,220.6531,-1.1,14.64,47.84626,-54.09684
2019-03-10 18:20:00+00:00,210.4815,-1.07,14.64,47.84626,-54.09684
2019-03-10 18:30:00+00:00,205.3948,-1.01,14.64,47.84626,-54.09684
2019-03-10 18:40:00+00:00,198.5882,-1.0,14.64,47.84626,-54.09684
2019-03-10 18:50:00+00:00,188.4681,-1.0,14.64,47.84626,-54.09684
2019-03-10 19:00:00+00:00,187.1764,-1.0,14.48,47.84626,-54.09684
2019-03-10 19:10:00+00:00,190.2981,-0.98,14.4,47.84626,-54.09684
2019-03-10 19:20:00+00:00,187.0698,-0.91,14.48,47.84626,-54.09684
2019-03-10 19:30:00+00:00,183.5898,-0.9,14.4,47.84626,-54.09684
2019-03-10 19:40:00+00:00,185.5031,-0.9,14.4,47.84626,-54.09684
2019-03-10 19:50:00+00:00,188.0164,-0.9,14.32,47.84626,-54.09684
2019-03-10 20:00:00+00:00,186.3382,-0.85,14.24,47.84626,-54.09684
2019-03-10 20:10:00+00:00,185.7665,-0.86,14.08,47.84626,-54.09684
2019-03-10 20:20:00+00:00,189.0215,-0.83,14.16,47.84626,-54.09684
2019-03-10 20:30:00+00:00,191.9581,-0.81,14.08,47.84626,-54.09684
2019-03-10 20:40:00+00:00,195.9698,-0.8,14.08,47.84626,-54.09684
2019-03-10 20:50:00+00:00,202.3381,-0.8,14.08,47.84626,-54.09684
2019-03-10 21:00:00+00:00,211.3031,-0.8,13.92,47.84626,-54.09684
2019-03-10 21:10:00+00:00,218.1798,-0.8,13.76,47.84626,-54.09684
2019-03-10 21:20:00+00:00,220.9398,-0.8,13.68,47.84626,-54.09684
2019-03-10 21:30:00+00:00,225.9247,-0.8,13.68,47.84626,-54.09684
2019-03-10 21:40:00+00:00,232.7664,-0.8,13.6,47.84626,-54.09684
2019-03-10 21:50:00+00:00,235.5731,-0.8,13.6,47.84626,-54.09684
2019-03-10 22:00:00+00:00,240.1264,-0.8,13.44,47.84626,-54.09684
2019-03-10 22:10:00+00:00,243.3564,-0.8,13.29,47.84626,-54.09684
2019-03-10 22:20:00+00:00,243.5614,-0.8,13.29,47.84626,-54.09684
2019-03-10 22:30:00+00:00,250.3931,-0.8,13.29,47.84626,-54.09684
2019-03-10 22:40:00+00:00,261.1781,-0.8,13.29,47.84626,-54.09684
2019-03-10 22:50:00+00:00,267.2497,-0.8,13.21,47.84626,-54.09684
2019-03-10 23:00:00+00:00,270.8097,-0.8,13.13,47.84626,-54.09684
2019-03-10 23:10:00+00:00,272.1614,-0.8,12.97,47.84626,-54.09684
2019-03-10 23:20:00+00:00,274.208,-0.84,13.05,47.84626,-54.09684
2019-03-10 23:30:00+00:00,279.9647,-0.9,13.05,47.84626,-54.09684
2019-03-10 23:40:00+00:00,288.3147,-0.9,13.05,47.84626,-54.09684
2019-03-10 23:50:00+00:00,293.8313,-0.9,13.05,47.84626,-54.09684
